sat.trackr.live / text

‹ back to catalog

VELOX-CI

NORAD 41166 · 2015-077A

PAYLOAD ACTIVE UNKNOWN

§ Identity

Operator
Country
SING
Launch date
2015-12-16
Launch site
SRILR
Launch vehicle
Mass (kg)
RCS (m²)
0.55

External: N2YO · Heavens-Above · Gunter

§ Orbital elements

Epoch: 2026-09-10T05:18:44.459424Z

Period
92.72 min
Inclination
14.9823°
Eccentricity
0.0004447
Mean motion
15.53074720 rev/d
Perigee alt
404.7 km
Apogee alt
410.8 km
Semi-major
6,785.9 km
B*
3.3295e-4
RAAN
144.2285°
Arg perigee
32.2666°
Mean anomaly
327.7932°
Rev number
59,595

§ Raw data

VELOX-CI1 41166U 15077A   26253.22134791  .00022829  00000+0  33295-3 0  99922 41166  14.9823 144.2285 0004447  32.2666 327.7932 15.53074720595957

JSON: /api/v1/satellites/41166 · /tle

For live sub-satellite position, see the globe view (requires WebGL).

§ Visibility from observer

Set your observer location to see the next 7 days of passes ≥ 10°. The values pass through the URL so the page stays shareable.

No JS? Fill the form by hand. The geolocation button needs JavaScript.